PEGASUS DEB, 39927

Orbit data source: Space-Track

PEGASUS DEB, 39927 is space debris in LEO originally from a launch on Thu, 19 May 1994 UTC launched from the Air Force Western Test Range (AFWTR). Debris objects in space refer to the collection of defunct objects orbiting the Earth. Examples of debris include non-operational satellites, rocket bodies, and fragments generated from explosions, collisions, or faulty payload assembly.

Loading next visibility...
Identifier
39927, 1994-029AGA
Orbit
LEO
Country
Flag of USUS
Related business
Manufacturer
Unknown
Mission
Spacecraft
Bus & Motor
Unknown
Mass
Unknown
Launch date (UTC)
1994-05-19 (32 years ago)
Launch vehicle
Unknown
Launch site
Air Force Western Test Range (AFWTR)
Object type
Payload
Rocket body
Debris
Shape & HBR
Unknown shape, 0.1 m
Radar Cross Section
Small (<0.1 m²)

Expand to show TLE details & history
Last TLE update: 6 days ago

TLE from 6 days ago
0 PEGASUS DEB
1 39927U 94029AGA 26169.75841670  .00210551  00000-0  10940-2 0  9996
2 39927  81.7818 184.1303 0016277 168.8059 191.3571 15.80209124657541
Epoch: 2026-06-18T18:12Z
TLE epoch observation values (Epoch: 2026-06-18T18:12:07.202Z)
Latitude
-0.00013°
Longitude
4.10312°
Altitude
343.703 km
Speed
7.696 km/s
True Right ascension
12h 16m 31s
True Declination
0° 00' 00"
Sunlit
Object was in daylight at epoch
Visualization orbit readout
Latitude
Unknown
Longitude
Unknown
Altitude
Unknown
Speed
Unknown
Apparent Right ascension
Unknown
Apparent Declination
Unknown
Sunlit
N/A
Visualization observer readout
Local Sidereal Time
04:18:40
Azimuth
Unknown
Elevation
Unknown
Doppler factor
Unknown
Orbital elements
Apogee altitude
337.686 km
Perigee altitude
315.859 km
Semi-major axis
6,704.909 km
Eccentricity
0.00163
Inclination
81.7818°
RAAN
184.1303°
Arg. of periapsis
168.8059°
True anomaly
191.32044°
Mean anomaly
191.3571°
Eccentric anomaly
191.33876°
Mean motion
3.95325 °/min
Orbital period
91.06 mins
BSTAR
0.001094
Loading maneuver chart data...
Computing Atmospheric mass density...

Documentation

Showing up to 5 results
|